User: anonymous   Login
Location: Baix
(44.7118°N, 4.7648°E)
Time: 12:29:47
(UTC+00:00)
Language:

Cosmos 2082 - Orbit

View from above orbital plane
View from above orbital plane
View from above satellite
View from above satellite

Ground track
Ground track

The orbit data is extracted from the following two-line orbital elements,

1 20624U 90046A   20293.41212500 -.00000233 +00000-0 -96799-4 0  9998
2 20624 071.0413 180.3979 0016773 319.1830 040.8035 14.14364596569719
Epoch (UTC): 19 October 2020 09:53:27
Eccentricity: 0.0016773
inclination: 71.0413°
perigee height: 832 km
apogee height: 856 km
right ascension of ascending node: 180.3979°
argument of perigee: 319.1830°
revolutions per day: 14.14364596
mean anomaly at epoch: 40.8035°
orbit number at epoch: 56971

The dashed part of the orbit path shows where the satellite is in the earth's shadow,  

DLR